Weather History for Wahoo, NE

Change the Weather History Date:

Saturday, December 29, 2012

  Actual Average Record
Temperature  
Mean Temperature 14 °F -  
Max Temperature 25 °F 35 °F 59 °F (1984)
Min Temperature 4 °F 13 °F -7 °F (1990)
Degree Days  
Heating Degree Days 50    
Moisture  
Dew Point 10 °F    
Average Humidity 81    
Maximum Humidity 90    
Minimum Humidity 68    
Precipitation  
Precipitation 0.00 in - - ()
Sea Level Pressure  
Sea Level Pressure 30.18 in    
Wind  
Wind Speed 6 mph (WSW)    
Max Wind Speed 13 mph    
Max Gust Speed 18 mph    
Visibility 10 miles    
Events Snow    
Averages and records for this station are not official NWS values.
T = Trace of Precipitation, MM = Missing Value Source: NWS Daily Summary

Daily Weather History Graph

Daily Weather History Graph

Search for Another Location

Airport:

Trip Planner

Search our weather history database for the weather conditions in past years. The results will help you decide how hot, cold, wet, or windy it might be!

Date:

Astronomy

Dec. 29, 2012 Rise Set
Actual Time 7:51 AM CST 5:05 PM CST
Civil Twilight 7:20 AM CST 5:37 PM CST
Nautical Twilight 6:45 AM CST 6:11 PM CST
Astronomical Twilight 6:12 AM CST 6:45 PM CST
Moon 6:41 PM CST (12/29) 8:24 AM CST (12/29)
Length of Visible Light 10h 16m
Length of Day
9h 14m
Full, 98% of the Moon is Illuminated
Dec 29
Full
Jan 4
Last Quarter
Jan 11
New
Jan 18
First Quarter
Jan 26
Full

Hourly Weather History & Observations

Time (CST) Temp. Windchill Dew Point Humidity Pressure Visibility Wind Dir Wind Speed Gust Speed Precip Events Conditions
12:15 AM 17.1 °F 3.6 °F 13.6 °F 86% 30.11 in 10.0 mi NNW 12.7 mph 18.4 mph N/A   Overcast
12:35 AM 16.7 °F 3.2 °F 13.5 °F 87% 30.11 in 10.0 mi NW 12.7 mph - N/A   Overcast
12:55 AM 16.2 °F 3.9 °F 13.1 °F 88% 30.12 in 10.0 mi WNW 10.4 mph - N/A   Overcast
1:15 AM 15.4 °F 4.6 °F 12.2 °F 87% 30.12 in 7.0 mi NNW 8.1 mph - N/A Snow Light Snow
1:35 AM 14.7 °F 2.9 °F 11.7 °F 88% 30.12 in 7.0 mi NW 9.2 mph - N/A Snow Light Snow
1:55 AM 14.0 °F 2.9 °F 11.1 °F 88% 30.12 in 10.0 mi NW 8.1 mph - N/A   Overcast
2:15 AM 14.0 °F 5.1 °F 10.9 °F 88% 30.13 in 7.0 mi WNW 5.8 mph - N/A Snow Light Snow
2:35 AM 14.0 °F - 11.3 °F 89% 30.13 in 10.0 mi Calm Calm - N/A   Overcast
2:55 AM 13.8 °F - 10.8 °F 88% 30.14 in 10.0 mi Calm Calm - N/A   Overcast
3:15 AM 12.2 °F 6.1 °F 9.5 °F 89% 30.14 in 10.0 mi WNW 3.5 mph - N/A   Mostly Cloudy
3:35 AM 9.1 °F -0.7 °F 6.6 °F 89% 30.14 in 10.0 mi West 5.8 mph - N/A   Scattered Clouds
3:55 AM 9.3 °F -0.5 °F 6.8 °F 89% 30.14 in 10.0 mi West 5.8 mph - N/A   Clear
4:15 AM 8.4 °F 1.8 °F 6.1 °F 90% 30.14 in 7.0 mi WSW 3.5 mph - N/A   Clear
4:35 AM 8.2 °F -1.8 °F 5.9 °F 90% 30.14 in 10.0 mi WSW 5.8 mph - N/A   Clear
4:55 AM 7.7 °F -3.7 °F 5.0 °F 89% 30.14 in 10.0 mi WSW 6.9 mph - N/A   Clear
5:15 AM 6.8 °F -5.9 °F 3.9 °F 88% 30.16 in 10.0 mi West 8.1 mph - N/A   Clear
5:35 AM 6.6 °F -5.0 °F 3.7 °F 88% 30.16 in 10.0 mi WSW 6.9 mph - N/A   Clear
5:55 AM 6.6 °F -0.3 °F 3.7 °F 88% 30.16 in 10.0 mi WSW 3.5 mph - N/A   Clear
6:15 AM 5.9 °F -5.8 °F 2.5 °F 86% 30.16 in 10.0 mi West 6.9 mph - N/A   Clear
6:35 AM 5.7 °F - 2.3 °F 86% 30.17 in 10.0 mi Calm Calm - N/A   Clear
6:55 AM 5.0 °F -4.1 °F 1.4 °F 85% 30.17 in 10.0 mi West 4.6 mph - N/A   Clear
7:15 AM 5.0 °F -2.1 °F 1.4 °F 85% 30.17 in 10.0 mi WSW 3.5 mph - N/A   Clear
7:35 AM 4.5 °F -4.7 °F 0.9 °F 85% 30.17 in 10.0 mi West 4.6 mph - N/A   Clear
7:55 AM 4.6 °F -6.0 °F 0.9 °F 84% 30.18 in 10.0 mi West 5.8 mph - N/A   Clear
8:15 AM 5.7 °F -6.1 °F 1.9 °F 84% 30.17 in 10.0 mi West 6.9 mph - N/A   Clear
8:35 AM 5.7 °F - 1.8 °F 84% 30.17 in 10.0 mi Calm Calm - N/A   Clear
8:55 AM 5.9 °F -4.5 °F 1.9 °F 84% 30.19 in 10.0 mi West 5.8 mph - N/A   Clear
9:15 AM 6.6 °F -0.3 °F 2.1 °F 82% 30.19 in 10.0 mi WSW 3.5 mph - N/A   Clear
9:35 AM 7.9 °F -2.2 °F 3.0 °F 81% 30.20 in 10.0 mi West 5.8 mph - N/A   Clear
9:55 AM 8.6 °F 0.1 °F 3.4 °F 79% 30.21 in 10.0 mi WSW 4.6 mph - N/A   Clear
10:15 AM 9.9 °F 3.4 °F 4.1 °F 78% 30.21 in 10.0 mi West 3.5 mph - N/A   Clear
10:35 AM 10.0 °F - 4.3 °F 78% 30.21 in 10.0 mi Calm Calm - N/A   Clear
10:55 AM 11.8 °F - 5.4 °F 75% 30.22 in 10.0 mi Calm Calm - N/A   Clear
11:15 AM 12.7 °F 6.7 °F 5.9 °F 74% 30.21 in 10.0 mi SSW 3.5 mph - N/A   Clear
11:35 AM 14.5 °F 8.8 °F 7.3 °F 73% 30.21 in 10.0 mi SW 3.5 mph - N/A   Clear
11:55 AM 16.0 °F 8.8 °F 8.6 °F 73% 30.20 in 10.0 mi SW 4.6 mph - N/A   Clear
12:15 PM 18.3 °F 13.1 °F 10.6 °F 72% 30.19 in 10.0 mi SW 3.5 mph - N/A   Clear
12:35 PM 19.2 °F 14.1 °F 11.3 °F 71% 30.19 in 10.0 mi SW 3.5 mph - N/A   Clear
12:55 PM 20.1 °F - 12.2 °F 71% 30.18 in 10.0 mi Calm Calm - N/A   Clear
1:15 PM 20.5 °F - 13.1 °F 73% 30.18 in 10.0 mi Calm Calm - N/A   Clear
1:35 PM 21.9 °F 13.4 °F 14.0 °F 72% 30.17 in 10.0 mi SW 6.9 mph - N/A   Clear
1:55 PM 23.2 °F 15.0 °F 14.9 °F 71% 30.17 in 10.0 mi SW 6.9 mph - N/A   Clear
2:35 PM 25.2 °F 18.3 °F 15.8 °F 68% 30.16 in 10.0 mi SW 5.8 mph - N/A   Clear
2:55 PM 25.7 °F 19.0 °F 16.5 °F 68% 30.17 in 10.0 mi WSW 5.8 mph - N/A   Clear
3:15 PM 25.7 °F 20.1 °F 16.7 °F 69% 30.18 in 10.0 mi WSW 4.6 mph - N/A   Clear
3:35 PM 25.7 °F 20.1 °F 17.6 °F 71% 30.18 in 10.0 mi SW 4.6 mph - N/A   Clear
3:55 PM 25.9 °F 21.7 °F 17.4 °F 70% 30.19 in 10.0 mi SSW 3.5 mph - N/A   Clear
4:15 PM 25.5 °F 18.7 °F 17.2 °F 71% 30.18 in 10.0 mi SW 5.8 mph - N/A   Clear
4:35 PM 25.2 °F 20.9 °F 17.2 °F 72% 30.18 in 10.0 mi SW 3.5 mph - N/A   Clear
4:55 PM 24.8 °F - 17.1 °F 72% 30.18 in 10.0 mi Calm Calm - N/A   Clear
5:15 PM 22.6 °F 18.0 °F 16.5 °F 77% 30.19 in 10.0 mi WSW 3.5 mph - N/A   Clear
5:35 PM 23.0 °F 14.7 °F 16.7 °F 77% 30.19 in 10.0 mi SW 6.9 mph - N/A   Clear
5:55 PM 23.0 °F 13.1 °F 16.7 °F 77% 30.19 in 10.0 mi SW 9.2 mph - N/A   Clear
6:15 PM 22.5 °F 14.1 °F 16.3 °F 77% 30.20 in 10.0 mi SW 6.9 mph - N/A   Clear
6:35 PM 21.7 °F 12.3 °F 16.0 °F 78% 30.20 in 10.0 mi SSW 8.1 mph - N/A   Clear
7:15 PM 22.1 °F 15.9 °F 16.3 °F 79% 30.20 in 10.0 mi SSW 4.6 mph - N/A   Clear
7:35 PM 21.9 °F 11.7 °F 16.0 °F 78% 30.20 in 10.0 mi WSW 9.2 mph - N/A   Clear
7:55 PM 19.8 °F 14.7 °F 14.5 °F 80% 30.20 in 10.0 mi South 3.5 mph - N/A   Clear
8:15 PM 20.1 °F 12.3 °F 15.3 °F 81% 30.20 in 10.0 mi WSW 5.8 mph - N/A   Clear
8:35 PM 17.1 °F - 12.6 °F 82% 30.20 in 10.0 mi Calm Calm - N/A   Clear
8:55 PM 17.2 °F 11.9 °F 12.7 °F 83% 30.20 in 10.0 mi SSW 3.5 mph - N/A   Clear
9:15 PM 15.4 °F - 12.2 °F 87% 30.21 in 10.0 mi Calm Calm - N/A   Clear
9:35 PM 16.2 °F - 12.6 °F 86% 30.21 in 10.0 mi Calm Calm - N/A   Clear
9:55 PM 17.8 °F - 14.4 °F 86% 30.20 in 10.0 mi Calm Calm - N/A   Clear
10:15 PM 12.2 °F - 8.8 °F 86% 30.20 in 10.0 mi Calm Calm - N/A   Clear
10:35 PM 11.3 °F 5.1 °F 8.6 °F 89% 30.20 in 10.0 mi South 3.5 mph - N/A   Clear
10:55 PM 11.7 °F 5.5 °F 9.3 °F 90% 30.21 in 10.0 mi SSE 3.5 mph - N/A   Clear
11:15 PM 10.2 °F 2.0 °F 7.7 °F 90% 30.20 in 10.0 mi ESE 4.6 mph - N/A   Clear
11:35 PM 10.4 °F 4.0 °F 7.7 °F 89% 30.20 in 10.0 mi SE 3.5 mph - N/A   Clear
11:55 PM 10.8 °F - 8.4 °F 90% 30.21 in 10.0 mi Calm Calm - N/A   Clear